TIANWANG 1A (TW-1A)
1 40928U 15051D   19291.76357084  .00002185  00000-0  54252-4 0  9995
2 40928  97.1360 320.3444 0010931   0.0278  90.2820 15.41356992227975
LAPAN A2
1 40931U 15052B   19289.50813792  .00000770  00000-0  17866-4 0  9990
2 40931   6.0052 282.2210 0015993  47.1467 313.0358 14.76617888219006
LQSAT
1 40958U 15057A   19291.83025528 +.00000022 +00000-0 +11002-4 0  9991
2 40958 097.8868 357.6515 0017596 205.3391 154.6956 14.73092330216790
CHUBUSAT 2
1 41338U 16012B   19291.85372017 +.00000307 +00000-0 +17140-4 0  9991
2 41338 031.0029 088.3921 0013885 233.9535 125.9814 15.00194209201275
CHUBUSAT 3
1 41339U 16012C   19291.74249939  .00000326  00000-0  18484-4 0  9999
2 41339  31.0096  87.0368 0013612 240.4924 119.4353 15.00366564201253
OUFTI-1
1 41458U 16025C   19291.84768121 +.00000592 +00000-0 +34563-4 0  9996
2 41458 098.1004 024.9048 0164477 306.6086 052.0104 15.06088215190953
E-STAR-2
1 41459U 16025D   19291.76093992  .00000090  00000-0  93621-5 0  9999
2 41459  98.1004  24.4042 0165591 308.4446  50.2015 15.05705170190913
AAUSAT 4
1 41460U 16025E   19291.84629259  .00001016  00000-0  55009-4 0  9997
2 41460  98.0959  26.0515 0155372 299.5324  59.0430 15.07694961191070
NUSAT 1
1 41557U 16033B   19291.90486462 +.00001083 +00000-0 +43016-4 0  9996
2 41557 097.4145 018.6881 0012678 220.7736 139.2555 15.27448553188749
BEESAT 4
1 41619U 16040W   19291.89900599 +.00001110 +00000-0 +49599-4 0  9996
2 41619 097.3545 351.7743 0010068 320.4650 039.5851 15.23376015172465
PRATHAM
1 41783U 16059A   19291.40792777 +.00000035 +00000-0 +16111-4 0  9991
2 41783 098.0538 348.2154 0033518 003.6116 356.5322 14.63014373163347
ALSAT 1N
1 41789U 16059G   19291.90764168 +.00000056 +00000-0 +19559-4 0  9997
2 41789 098.0571 350.9678 0028138 351.4829 008.5882 14.64268190163533
NAYIF 1
1 42017U 17008BX  19291.75702910 +.00001226 +00000-0 +50754-4 0  9999
2 42017 097.3911 357.5313 0007934 098.0601 262.1538 15.25799311148531
MAX VALIER SAT
1 42778U 17036P   19291.74165288 +.00000752 +00000-0 +35676-4 0  9993
2 42778 097.3409 346.6392 0013268 149.4912 210.7099 15.22187429128803
